Weather History for KJEF - May, 2013

Change the Weather History Date:

Saturday, May 11, 2013

  Actual Average Record
Temperature  
Mean Temperature 55 °F -  
Max Temperature 68 °F 75 °F 91 °F (2011)
Min Temperature 44 °F 50 °F 34 °F (1969)
Degree Days  
Heating Degree Days 10    
Growing Degree Days 5 (Base 50)    
Moisture  
Dew Point 41 °F    
Average Humidity 74    
Maximum Humidity 100    
Minimum Humidity 23    
Precipitation  
Precipitation 0.01 in - - ()
Sea Level Pressure  
Sea Level Pressure 30.06 in    
Wind  
Wind Speed 3 mph (NW)    
Max Wind Speed 21 mph    
Max Gust Speed 29 mph    
Visibility 6 miles    
Events Fog    
Averages and records for this station are not official NWS values.
T = Trace of Precipitation, MM = Missing Value Source: NWS Daily Summary

Daily Weather History Graph

Daily Weather History Graph

Search for Another Location

Airport or City:

Trip Planner

Search our weather history database for the weather conditions in past years. The results will help you decide how hot, cold, wet, or windy it might be!

Date:

Astronomy

May. 11, 2013 Rise Set
Actual Time 6:00 AM CDT 8:10 PM CDT
Civil Twilight 5:30 AM CDT 8:39 PM CDT
Nautical Twilight 4:54 AM CDT 9:16 PM CDT
Astronomical Twilight 4:15 AM CDT 9:55 PM CDT
Moon 7:08 AM CDT (5/11) 9:50 PM CDT (5/11)
Length of Visible Light 15h 09m
Length of Day
14h 09m
Waxing Crescent, 3% of the Moon is Illuminated
May 11
Waxing Crescent
May 17
First Quarter
May 24
Full
May 31
Last Quarter
Jun 8
New

Hourly Weather History & Observations

Time (CDT) Temp. Windchill Dew Point Humidity Pressure Visibility Wind Dir Wind Speed Gust Speed Precip Events Conditions
12:53 AM 51.1 °F - 48.0 °F 89% 30.02 in 10.0 mi Calm Calm - N/A   Clear
1:53 AM 50.0 °F - 46.9 °F 89% 30.03 in 10.0 mi Calm Calm - N/A   Clear
2:46 AM 46.4 °F - 44.6 °F 93% 30.06 in 7.0 mi Calm Calm - 0.01 in   Scattered Clouds
2:53 AM 48.0 °F - 46.0 °F 93% 30.03 in 9.0 mi Calm Calm - 0.01 in   Mostly Cloudy
3:03 AM 46.4 °F 45.2 °F 44.6 °F 93% 30.06 in 1.5 mi NNW 3.5 mph - N/A   Mostly Cloudy
3:05 AM 46.4 °F 45.2 °F 44.6 °F 93% 30.05 in 0.8 mi NNW 3.5 mph - N/A   Mist
3:14 AM 48.2 °F - 46.4 °F 93% 30.05 in 0.2 mi Calm Calm - N/A Fog Fog
3:22 AM 48.2 °F - 46.4 °F 93% 30.05 in 0.2 mi Calm Calm - N/A Fog Fog
3:37 AM 46.4 °F - 44.6 °F 93% 30.05 in 0.5 mi Calm Calm - N/A Fog Fog
3:53 AM 46.0 °F 44.8 °F 44.1 °F 93% 30.02 in 0.8 mi West 3.5 mph - N/A   Mist
3:56 AM 46.4 °F 45.2 °F 44.6 °F 93% 30.04 in 1.2 mi West 3.5 mph - N/A   Partly Cloudy
4:00 AM 46.4 °F 45.2 °F 44.6 °F 93% 30.04 in 4.0 mi WNW 3.5 mph - N/A   Partly Cloudy
4:14 AM 46.4 °F - 44.6 °F 93% 30.04 in 2.5 mi Calm Calm - N/A   Mostly Cloudy
4:18 AM 46.4 °F - 44.6 °F 93% 30.04 in 0.8 mi Calm Calm - N/A   Mist
4:28 AM 46.4 °F 45.2 °F 44.6 °F 93% 30.04 in 0.2 mi NNW 3.5 mph - N/A Fog Fog
4:53 AM 45.0 °F - 44.1 °F 97% 30.01 in 0.2 mi Calm Calm - N/A Fog Fog
5:53 AM 44.1 °F 41.5 °F 43.0 °F 96% 30.01 in 0.2 mi NW 4.6 mph - N/A Fog Fog
6:30 AM 44.6 °F - 42.8 °F 93% 30.04 in 0.8 mi Calm Calm - N/A   Mist
6:40 AM 44.6 °F - 44.6 °F 100% 30.05 in 0.2 mi Calm Calm - N/A Fog Fog
6:53 AM 45.0 °F - 43.0 °F 93% 30.02 in 0.2 mi Calm Calm - N/A Fog Fog
7:01 AM 44.6 °F - 44.6 °F 100% 30.05 in 0.2 mi Calm Calm - N/A Fog Fog
7:19 AM 46.4 °F - 46.4 °F 100% 30.05 in 0.8 mi Calm Calm - N/A   Mist
7:30 AM 46.4 °F - 46.4 °F 100% 30.05 in 2.0 mi Calm Calm - N/A   Mostly Cloudy
7:37 AM 46.4 °F - 46.4 °F 100% 30.05 in 6.0 mi Calm Calm - N/A   Mostly Cloudy
7:43 AM 48.2 °F - 46.4 °F 93% 30.05 in 6.0 mi Calm Calm - N/A   Partly Cloudy
7:53 AM 48.9 °F - 46.9 °F 93% 30.03 in 7.0 mi Calm Calm - N/A   Partly Cloudy
8:53 AM 55.9 °F - 51.1 °F 84% 30.02 in 10.0 mi Calm Calm - N/A   Clear
9:53 AM 64.0 °F - 52.0 °F 65% 30.02 in 10.0 mi Variable 6.9 mph - N/A   Clear
10:53 AM 66.9 °F - 48.9 °F 52% 30.01 in 10.0 mi NW 11.5 mph 20.7 mph N/A   Clear
11:53 AM 66.9 °F - 45.0 °F 45% 30.04 in 10.0 mi NNW 16.1 mph 26.5 mph N/A   Partly Cloudy
12:53 PM 66.9 °F - 36.0 °F 32% 30.05 in 10.0 mi North 15.0 mph 26.5 mph N/A   Clear
1:53 PM 66.9 °F - 34.0 °F 30% 30.06 in 10.0 mi NW 12.7 mph 23.0 mph N/A   Clear
2:53 PM 66.9 °F - 30.9 °F 26% 30.07 in 10.0 mi NW 16.1 mph 24.2 mph N/A   Clear
3:53 PM 66.9 °F - 30.9 °F 26% 30.07 in 10.0 mi NW 15.0 mph 25.3 mph N/A   Clear
4:53 PM 64.9 °F - 26.1 °F 23% 30.09 in 10.0 mi NNW 20.7 mph 28.8 mph N/A   Clear
5:53 PM 64.0 °F - 30.0 °F 28% 30.09 in 10.0 mi NW 12.7 mph 18.4 mph N/A   Clear
6:53 PM 63.0 °F - 28.0 °F 27% 30.11 in 10.0 mi NW 11.5 mph 16.1 mph N/A   Clear
7:53 PM 60.1 °F - 30.0 °F 32% 30.12 in 10.0 mi NNW 5.8 mph - N/A   Clear
8:53 PM 57.0 °F - 30.9 °F 37% 30.13 in 10.0 mi NW 3.5 mph - N/A   Partly Cloudy
9:53 PM 54.0 °F - 33.1 °F 45% 30.16 in 10.0 mi North 6.9 mph - N/A   Clear
10:53 PM 52.0 °F - 32.0 °F 47% 30.17 in 10.0 mi North 3.5 mph - N/A   Clear
11:53 PM 51.1 °F - 28.9 °F 43% 30.18 in 10.0 mi North 4.6 mph - N/A   Clear